Time,TemperatureF,DewpointF,PressureIn,WindDirection,WindDirectionDegrees,WindSpeedMPH,WindSpeedGustMPH,Humidity,HourlyPrecipIn,Conditions,Clouds,dailyrainin,SoftwareType,DateUTC
2013-02-12 00:00:00,39.2,38.7,29.09,East,90,0.0,0.0,98,0.00,,,0.00,VWS V14.01,2013-02-12 08:00:00,
2013-02-12 00:05:00,39.4,38.9,29.09,NNW,338,0.0,0.0,98,0.00,,OVC007,0.00,VWS V14.01,2013-02-12 08:05:00,
2013-02-12 00:10:00,39.7,39.2,29.09,North,0,2.5,2.5,98,0.00,,OVC007,0.00,VWS V14.01,2013-02-12 08:10:00,
2013-02-12 00:15:00,39.9,39.4,29.09,NW,315,1.6,1.6,98,0.00,,OVC007,0.00,VWS V14.01,2013-02-12 08:15:00,
2013-02-12 00:20:00,39.9,39.4,29.09,WNW,292,2.5,2.5,98,0.00,,OVC007,0.00,VWS V14.01,2013-02-12 08:20:00,
2013-02-12 00:28:00,39.7,39.2,29.09,East,90,1.6,1.6,98,0.00,,OVC007,0.00,VWS V14.01,2013-02-12 08:28:00,
2013-02-12 00:30:00,39.9,39.4,29.09,SE,135,0.0,0.0,98,0.00,,,0.00,VWS V14.01,2013-02-12 08:30:00,
2013-02-12 00:33:00,39.9,39.4,29.09,NNE,22,1.3,1.3,98,0.00,,OVC006,0.00,VWS V14.01,2013-02-12 08:33:00,
2013-02-12 00:38:00,40.1,39.6,29.09,NNE,22,1.6,1.6,98,0.00,,OVC006,0.00,VWS V14.01,2013-02-12 08:38:00,
2013-02-12 00:43:00,40.1,39.6,29.09,North,0,2.7,2.7,98,0.00,,OVC006,0.00,VWS V14.01,2013-02-12 08:43:00,
2013-02-12 00:48:00,40.1,39.6,29.09,NW,315,2.5,2.5,98,0.00,,OVC006,0.00,VWS V14.01,2013-02-12 08:48:00,
2013-02-12 00:52:00,40.1,39.6,29.09,NNW,338,2.0,2.0,98,0.00,,OVC006,0.00,VWS V14.01,2013-02-12 08:52:00,
2013-02-12 00:57:00,40.1,39.6,29.09,ESE,112,1.1,1.1,98,0.00,,OVC006,0.00,VWS V14.01,2013-02-12 08:57:00,
2013-02-12 01:00:00,39.7,39.2,29.09,NE,45,0.0,0.0,98,0.00,,,0.00,VWS V14.01,2013-02-12 09:00:00,
2013-02-12 01:02:00,39.9,39.4,29.09,ENE,68,2.2,2.2,98,0.00,,,0.00,VWS V14.01,2013-02-12 09:02:00,
2013-02-12 01:07:00,39.9,39.4,29.09,SW,225,0.0,0.0,98,0.00,,,0.00,VWS V14.01,2013-02-12 09:07:00,
2013-02-12 01:12:00,40.1,39.6,29.09,SE,135,0.0,0.0,98,0.00,,,0.00,VWS V14.01,2013-02-12 09:12:00,
2013-02-12 01:17:00,39.9,39.4,29.09,SE,135,0.0,0.0,98,0.00,,,0.00,VWS V14.01,2013-02-12 09:17:00,
2013-02-12 01:22:00,39.9,39.4,29.09,SE,135,0.0,0.0,98,0.00,,,0.00,VWS V14.01,2013-02-12 09:22:00,
2013-02-12 01:27:00,39.9,39.4,29.09,SE,135,0.0,0.0,98,0.00,,,0.00,VWS V14.01,2013-02-12 09:27:00,
2013-02-12 01:30:00,39.7,39.2,29.09,SW,225,0.0,0.0,98,0.00,,,0.00,VWS V14.01,2013-02-12 09:30:00,
2013-02-12 01:32:00,39.9,39.4,29.09,SE,135,1.1,1.1,98,0.00,,OVC030,0.00,VWS V14.01,2013-02-12 09:32:00,
2013-02-12 01:37:00,39.9,39.4,29.09,East,90,2.0,2.0,98,0.00,,OVC030,0.00,VWS V14.01,2013-02-12 09:37:00,
2013-02-12 01:42:00,39.9,39.4,29.09,ESE,112,1.1,1.1,98,0.00,,OVC030,0.00,VWS V14.01,2013-02-12 09:42:00,
2013-02-12 01:47:00,39.9,39.4,29.09,ESE,112,1.1,1.1,98,0.00,,OVC030,0.00,VWS V14.01,2013-02-12 09:47:00,
2013-02-12 01:52:00,39.7,39.2,29.09,SSW,202,0.0,0.0,98,0.00,,OVC030,0.00,VWS V14.01,2013-02-12 09:52:00,
2013-02-12 01:57:00,39.7,39.2,29.09,NE,45,1.1,1.1,98,0.00,,OVC030,0.00,VWS V14.01,2013-02-12 09:57:00,
2013-02-12 02:00:00,39.7,39.2,29.09,WNW,292,0.0,0.0,98,0.00,,,0.00,VWS V14.01,2013-02-12 10:00:00,
2013-02-12 02:02:00,39.9,39.4,29.09,NE,45,2.0,2.0,98,0.00,,,0.00,VWS V14.01,2013-02-12 10:02:00,
2013-02-12 02:07:00,39.9,39.4,29.09,East,90,0.0,0.0,98,0.00,,,0.00,VWS V14.01,2013-02-12 10:07:00,
2013-02-12 02:12:00,39.9,39.4,29.09,SSW,202,0.0,0.0,98,0.00,,,0.00,VWS V14.01,2013-02-12 10:12:00,
2013-02-12 02:17:00,39.9,39.4,29.09,SSW,202,0.0,0.0,98,0.00,,,0.00,VWS V14.01,2013-02-12 10:17:00,
2013-02-12 02:22:00,39.9,39.4,29.09,SSW,202,0.0,0.0,98,0.00,,,0.00,VWS V14.01,2013-02-12 10:22:00,
2013-02-12 02:27:00,39.9,39.4,29.09,SSW,202,0.0,0.0,98,0.00,,,0.00,VWS V14.01,2013-02-12 10:27:00,
2013-02-12 02:30:00,39.7,39.2,29.09,North,0,0.0,0.0,98,0.00,,,0.00,VWS V14.01,2013-02-12 10:30:00,
2013-02-12 02:32:00,39.7,39.2,29.09,SW,225,0.0,0.0,98,0.00,,,0.00,VWS V14.01,2013-02-12 10:32:00,
2013-02-12 02:37:00,39.7,39.2,29.09,NE,45,0.0,0.0,98,0.00,,,0.00,VWS V14.01,2013-02-12 10:37:00,
2013-02-12 02:42:00,39.7,39.2,29.09,SSW,202,0.0,0.0,98,0.00,,,0.00,VWS V14.01,2013-02-12 10:42:00,
2013-02-12 02:47:00,39.9,39.4,29.09,NE,45,0.0,0.0,98,0.00,,,0.00,VWS V14.01,2013-02-12 10:47:00,
2013-02-12 02:52:00,39.7,39.2,29.09,WNW,292,0.0,0.0,98,0.00,,,0.00,VWS V14.01,2013-02-12 10:52:00,
2013-02-12 02:57:00,39.7,39.2,29.09,WNW,292,0.0,0.0,98,0.00,,,0.00,VWS V14.01,2013-02-12 10:57:00,
2013-02-12 03:00:00,39.7,39.2,29.09,NNW,338,2.5,2.5,98,0.00,,,0.00,VWS V14.01,2013-02-12 11:00:00,
2013-02-12 03:02:00,39.7,39.2,29.09,WNW,292,0.0,0.0,98,0.00,,,0.00,VWS V14.01,2013-02-12 11:02:00,
2013-02-12 03:07:00,39.7,39.2,29.09,WSW,248,0.0,0.0,98,0.00,,,0.00,VWS V14.01,2013-02-12 11:07:00,
2013-02-12 03:12:00,39.7,39.2,29.09,WNW,292,0.0,0.0,98,0.00,,,0.00,VWS V14.01,2013-02-12 11:12:00,
2013-02-12 03:17:00,39.7,39.2,29.09,NW,315,2.0,2.0,98,0.00,,,0.00,VWS V14.01,2013-02-12 11:17:00,
2013-02-12 03:22:00,39.7,39.2,29.09,WNW,292,1.1,1.1,98,0.00,,,0.00,VWS V14.01,2013-02-12 11:22:00,
2013-02-12 03:27:00,39.7,39.2,29.09,WNW,292,1.6,1.6,98,0.00,,,0.00,VWS V14.01,2013-02-12 11:27:00,
2013-02-12 03:30:00,39.9,39.4,29.09,NNW,338,0.0,0.0,98,0.00,,,0.00,VWS V14.01,2013-02-12 11:30:00,
2013-02-12 03:32:00,39.7,39.2,29.09,SSW,202,0.0,0.0,98,0.00,,,0.00,VWS V14.01,2013-02-12 11:32:00,
2013-02-12 03:37:00,39.7,39.2,29.09,SSW,202,1.3,1.3,98,0.00,,,0.00,VWS V14.01,2013-02-12 11:37:00,
2013-02-12 03:42:00,39.7,39.2,29.09,NNW,338,0.0,0.0,98,0.00,,,0.00,VWS V14.01,2013-02-12 11:42:00,
2013-02-12 03:47:00,39.7,39.2,29.09,WNW,292,1.1,1.1,98,0.00,,,0.00,VWS V14.01,2013-02-12 11:47:00,
2013-02-12 03:52:00,39.7,39.2,29.09,WSW,248,0.0,0.0,98,0.00,,,0.00,VWS V14.01,2013-02-12 11:52:00,
2013-02-12 03:57:00,39.9,39.4,29.09,NW,315,1.1,1.1,98,0.00,,,0.00,VWS V14.01,2013-02-12 11:57:00,
2013-02-12 04:00:00,39.9,39.4,29.09,SSE,158,0.0,0.0,98,0.00,,,0.00,VWS V14.01,2013-02-12 12:00:00,
2013-02-12 04:02:00,39.9,39.4,29.09,NNW,338,1.6,1.6,98,0.00,,OVC030,0.00,VWS V14.01,2013-02-12 12:02:00,
2013-02-12 04:07:00,39.9,39.4,29.09,WSW,248,0.0,0.0,98,0.00,,OVC030,0.00,VWS V14.01,2013-02-12 12:07:00,
2013-02-12 04:12:00,39.7,39.2,29.09,WSW,248,0.0,0.0,98,0.00,,OVC030,0.00,VWS V14.01,2013-02-12 12:12:00,
2013-02-12 04:17:00,39.7,39.2,29.09,West,270,0.0,0.0,98,0.00,,OVC030,0.00,VWS V14.01,2013-02-12 12:17:00,
2013-02-12 04:22:00,39.9,39.4,29.09,West,270,0.0,0.0,98,0.00,,OVC030,0.00,VWS V14.01,2013-02-12 12:22:00,
2013-02-12 04:27:00,39.9,39.4,29.09,West,270,0.0,0.0,98,0.00,,OVC030,0.00,VWS V14.01,2013-02-12 12:27:00,
2013-02-12 04:30:00,39.9,39.4,29.09,SSE,158,0.0,0.0,98,0.00,,,0.00,VWS V14.01,2013-02-12 12:30:00,
2013-02-12 04:32:00,39.9,39.4,29.09,WNW,292,0.0,0.0,98,0.00,,OVC030,0.00,VWS V14.01,2013-02-12 12:32:00,
2013-02-12 04:37:00,39.9,39.4,29.09,NNE,22,0.0,0.0,98,0.00,,OVC030,0.00,VWS V14.01,2013-02-12 12:37:00,
2013-02-12 04:42:00,39.9,39.4,29.09,NE,45,0.0,0.0,98,0.00,,OVC030,0.00,VWS V14.01,2013-02-12 12:42:00,
2013-02-12 04:47:00,39.9,39.4,29.09,ESE,112,0.0,0.0,98,0.00,,OVC030,0.00,VWS V14.01,2013-02-12 12:47:00,
2013-02-12 04:52:00,39.9,39.4,29.09,SE,135,2.2,2.2,98,0.00,,OVC030,0.00,VWS V14.01,2013-02-12 12:52:00,
2013-02-12 04:57:00,39.9,39.4,29.09,SE,135,2.0,2.0,98,0.00,,OVC030,0.00,VWS V14.01,2013-02-12 12:57:00,
2013-02-12 05:00:00,39.7,39.2,29.11,South,180,0.0,0.0,98,0.00,,,0.00,VWS V14.01,2013-02-12 13:00:00,
2013-02-12 05:02:00,39.9,39.4,29.09,SSE,158,0.0,0.0,98,0.00,,OVC030,0.00,VWS V14.01,2013-02-12 13:02:00,
2013-02-12 05:07:00,39.9,39.4,29.09,SE,135,0.0,0.0,98,0.00,,OVC030,0.00,VWS V14.01,2013-02-12 13:07:00,
2013-02-12 05:12:00,39.9,39.4,29.09,SSE,158,0.0,0.0,98,0.00,,OVC030,0.00,VWS V14.01,2013-02-12 13:12:00,
2013-02-12 05:17:00,39.9,39.4,29.09,SSE,158,0.0,0.0,98,0.00,,OVC030,0.00,VWS V14.01,2013-02-12 13:17:00,
2013-02-12 05:22:00,39.9,39.4,29.09,SSE,158,0.0,0.0,98,0.00,,OVC030,0.00,VWS V14.01,2013-02-12 13:22:00,
2013-02-12 05:27:00,39.9,39.4,29.09,SSE,158,0.0,0.0,98,0.00,,OVC030,0.00,VWS V14.01,2013-02-12 13:27:00,
2013-02-12 05:30:00,39.7,39.2,29.15,WSW,248,0.0,0.0,98,0.00,,,0.00,VWS V14.01,2013-02-12 13:30:00,
2013-02-12 05:32:00,39.9,39.4,29.09,SSE,158,0.0,0.0,98,0.00,,OVC018,0.00,VWS V14.01,2013-02-12 13:32:00,
2013-02-12 05:37:00,39.9,39.4,29.12,SSE,158,0.0,0.0,98,0.00,,OVC018,0.00,VWS V14.01,2013-02-12 13:37:00,
2013-02-12 05:42:00,39.7,39.2,29.12,South,180,0.0,0.0,98,0.00,,OVC018,0.00,VWS V14.01,2013-02-12 13:42:00,
2013-02-12 05:47:00,39.7,39.2,29.12,South,180,0.0,0.0,98,0.00,,OVC018,0.00,VWS V14.01,2013-02-12 13:47:00,
2013-02-12 05:52:00,39.7,39.2,29.12,South,180,0.0,0.0,98,0.00,,OVC018,0.00,VWS V14.01,2013-02-12 13:52:00,
2013-02-12 05:57:00,39.7,39.2,29.12,South,180,0.0,0.0,98,0.00,,OVC018,0.00,VWS V14.01,2013-02-12 13:57:00,
2013-02-12 06:02:00,39.7,39.2,29.12,South,180,0.0,0.0,98,0.00,,,0.00,VWS V14.01,2013-02-12 14:02:00,
2013-02-12 06:07:00,39.7,39.2,29.12,South,180,0.0,0.0,98,0.00,,,0.00,VWS V14.01,2013-02-12 14:07:00,
2013-02-12 06:12:00,39.7,39.2,29.12,SSW,202,0.0,0.0,98,0.00,,,0.00,VWS V14.01,2013-02-12 14:12:00,
2013-02-12 06:17:00,39.7,39.2,29.12,SW,225,0.0,0.0,98,0.00,,,0.00,VWS V14.01,2013-02-12 14:17:00,
2013-02-12 06:22:00,39.7,39.2,29.14,WNW,292,0.0,0.0,98,0.00,,,0.00,VWS V14.01,2013-02-12 14:22:00,
2013-02-12 06:27:00,39.7,39.2,29.14,WSW,248,0.0,0.0,98,0.00,,,0.00,VWS V14.01,2013-02-12 14:27:00,
2013-02-12 06:30:00,39.4,38.9,29.11,SSE,158,0.0,0.0,98,0.00,,,0.00,VWS V14.01,2013-02-12 14:30:00,
2013-02-12 06:32:00,39.7,39.2,29.14,WSW,248,0.0,0.0,98,0.00,,,0.00,VWS V14.01,2013-02-12 14:32:00,
2013-02-12 06:37:00,39.7,39.2,29.14,WSW,248,0.0,0.0,98,0.00,,,0.00,VWS V14.01,2013-02-12 14:37:00,
2013-02-12 06:42:00,39.6,39.0,29.14,WSW,248,0.0,0.0,98,0.00,,,0.00,VWS V14.01,2013-02-12 14:42:00,
2013-02-12 06:47:00,39.7,39.2,29.14,WSW,248,0.0,0.0,98,0.00,,,0.00,VWS V14.01,2013-02-12 14:47:00,
2013-02-12 06:52:00,39.7,39.2,29.12,WSW,248,0.0,0.0,98,0.00,,,0.00,VWS V14.01,2013-02-12 14:52:00,
2013-02-12 06:57:00,39.6,39.0,29.12,WSW,248,0.0,0.0,98,0.00,,,0.00,VWS V14.01,2013-02-12 14:57:00,
2013-02-12 07:00:00,39.6,39.0,29.11,SE,135,0.0,0.0,98,0.00,,,0.00,VWS V14.01,2013-02-12 15:00:00,
2013-02-12 07:02:00,39.6,39.0,29.12,WSW,248,0.0,0.0,98,0.00,,,0.00,VWS V14.01,2013-02-12 15:02:00,
2013-02-12 07:07:00,39.6,39.0,29.14,WSW,248,0.0,0.0,98,0.00,,,0.00,VWS V14.01,2013-02-12 15:07:00,
2013-02-12 07:12:00,39.6,39.0,29.14,WSW,248,0.0,0.0,98,0.00,,,0.00,VWS V14.01,2013-02-12 15:12:00,
2013-02-12 07:17:00,39.6,39.0,29.14,WSW,248,0.0,0.0,98,0.00,,,0.00,VWS V14.01,2013-02-12 15:17:00,
2013-02-12 07:22:00,39.4,38.9,29.12,SSE,158,0.0,0.0,98,0.00,,,0.00,VWS V14.01,2013-02-12 15:22:00,
2013-02-12 07:27:00,39.4,38.9,29.12,SSE,158,0.0,0.0,98,0.00,,,0.00,VWS V14.01,2013-02-12 15:27:00,
2013-02-12 07:30:00,40.1,39.6,29.15,ENE,68,0.0,0.0,98,0.00,,,0.00,VWS V14.01,2013-02-12 15:30:00,
2013-02-12 07:32:00,39.4,38.9,29.12,SSE,158,0.0,0.0,98,0.00,,,0.00,VWS V14.01,2013-02-12 15:32:00,
2013-02-12 07:37:00,39.4,38.9,29.12,SSE,158,0.0,0.0,98,0.00,,,0.00,VWS V14.01,2013-02-12 15:37:00,
2013-02-12 07:42:00,39.4,38.9,29.12,SSE,158,0.0,0.0,98,0.00,,,0.00,VWS V14.01,2013-02-12 15:42:00,
2013-02-12 07:47:00,39.4,38.9,29.12,East,90,0.0,0.0,98,0.00,,,0.00,VWS V14.01,2013-02-12 15:47:00,
2013-02-12 07:52:00,39.4,38.9,29.12,East,90,0.0,0.0,98,0.00,,,0.00,VWS V14.01,2013-02-12 15:52:00,
2013-02-12 07:57:00,39.6,39.0,29.12,North,0,0.0,0.0,98,0.00,,,0.00,VWS V14.01,2013-02-12 15:57:00,
2013-02-12 08:00:00,41.0,40.5,29.15,ESE,112,0.0,0.0,98,0.00,,,0.00,VWS V14.01,2013-02-12 16:00:00,
2013-02-12 08:02:00,39.7,39.2,29.12,SE,135,0.0,0.0,98,0.00,,,0.00,VWS V14.01,2013-02-12 16:02:00,
2013-02-12 08:06:00,39.7,39.2,29.14,SE,135,0.0,0.0,98,0.00,,,0.00,VWS V14.01,2013-02-12 16:06:00,
2013-02-12 08:11:00,39.7,39.2,29.14,SE,135,0.0,0.0,98,0.00,,,0.00,VWS V14.01,2013-02-12 16:11:00,
2013-02-12 08:16:00,39.9,39.4,29.14,SE,135,0.0,0.0,98,0.00,,,0.00,VWS V14.01,2013-02-12 16:16:00,
2013-02-12 08:21:00,39.9,39.4,29.14,SE,135,0.0,0.0,98,0.00,,,0.00,VWS V14.01,2013-02-12 16:21:00,
2013-02-12 08:26:00,40.1,39.6,29.14,SE,135,0.0,0.0,98,0.00,,,0.00,VWS V14.01,2013-02-12 16:26:00,
2013-02-12 08:30:00,41.7,41.2,29.15,SE,135,0.0,0.0,98,0.00,,,0.00,VWS V14.01,2013-02-12 16:30:00,
2013-02-12 08:31:00,40.1,39.6,29.14,ENE,68,0.0,0.0,98,0.00,,,0.00,VWS V14.01,2013-02-12 16:31:00,
2013-02-12 08:36:00,40.5,39.9,29.14,ENE,68,0.0,0.0,98,0.00,,,0.00,VWS V14.01,2013-02-12 16:36:00,
2013-02-12 08:41:00,40.5,39.9,29.14,ENE,68,0.0,0.0,98,0.00,,,0.00,VWS V14.01,2013-02-12 16:41:00,
2013-02-12 08:46:00,40.6,40.1,29.14,ENE,68,0.0,0.0,98,0.00,,,0.00,VWS V14.01,2013-02-12 16:46:00,
2013-02-12 08:51:00,40.8,40.3,29.14,ENE,68,0.0,0.0,98,0.00,,,0.00,VWS V14.01,2013-02-12 16:51:00,
2013-02-12 08:56:00,41.0,40.5,29.14,ENE,68,0.0,0.0,98,0.00,,,0.00,VWS V14.01,2013-02-12 16:56:00,
2013-02-12 09:00:00,42.6,42.1,29.15,East,90,2.5,2.5,98,0.04,,,0.04,VWS V14.01,2013-02-12 17:00:00,
2013-02-12 09:01:00,41.2,40.7,29.14,ESE,112,1.1,1.1,98,0.00,,,0.00,VWS V14.01,2013-02-12 17:01:00,
2013-02-12 09:06:00,41.2,40.7,29.14,SE,135,0.0,0.0,98,0.00,,,0.00,VWS V14.01,2013-02-12 17:06:00,
2013-02-12 09:11:00,41.4,40.8,29.14,ESE,112,0.0,0.0,98,0.00,,,0.00,VWS V14.01,2013-02-12 17:11:00,
2013-02-12 09:16:00,41.4,40.8,29.14,ESE,112,0.0,0.0,98,0.00,,,0.00,VWS V14.01,2013-02-12 17:16:00,
2013-02-12 09:21:00,41.5,41.0,29.14,East,90,0.0,0.0,98,0.00,,,0.00,VWS V14.01,2013-02-12 17:21:00,
2013-02-12 09:26:00,41.7,41.2,29.14,SE,135,2.0,2.0,98,0.00,,,0.00,VWS V14.01,2013-02-12 17:26:00,
2013-02-12 09:30:00,43.5,43.0,29.15,SE,135,0.0,0.0,98,0.04,,,0.04,VWS V14.01,2013-02-12 17:30:00,
2013-02-12 09:31:00,41.7,41.2,29.14,ENE,68,1.6,1.6,98,0.00,,,0.00,VWS V14.01,2013-02-12 17:31:00,
2013-02-12 09:36:00,41.9,41.4,29.14,ESE,112,2.0,2.0,98,0.04,,,0.04,VWS V14.01,2013-02-12 17:36:00,
2013-02-12 09:41:00,41.9,41.4,29.14,ENE,68,2.5,2.5,98,0.04,,,0.04,VWS V14.01,2013-02-12 17:41:00,
2013-02-12 09:46:00,42.1,41.6,29.14,East,90,0.0,0.0,98,0.04,,,0.04,VWS V14.01,2013-02-12 17:46:00,
2013-02-12 09:51:00,42.3,41.7,29.14,SSE,158,0.0,0.0,98,0.04,,,0.04,VWS V14.01,2013-02-12 17:51:00,
2013-02-12 09:56:00,42.6,42.1,29.14,ENE,68,0.0,0.0,98,0.04,,,0.04,VWS V14.01,2013-02-12 17:56:00,
2013-02-12 10:00:00,43.7,43.2,29.15,ESE,112,0.0,0.0,98,0.04,,,0.04,VWS V14.01,2013-02-12 18:00:00,
2013-02-12 10:01:00,42.6,42.1,29.14,ESE,112,0.0,0.0,98,0.04,,OVC015,0.04,VWS V14.01,2013-02-12 18:01:00,
2013-02-12 10:06:00,42.6,42.1,29.14,SE,135,0.0,0.0,98,0.04,,OVC015,0.04,VWS V14.01,2013-02-12 18:06:00,
2013-02-12 10:11:00,43.0,42.5,29.14,SE,135,0.0,0.0,98,0.04,,OVC015,0.04,VWS V14.01,2013-02-12 18:11:00,
2013-02-12 10:16:00,43.2,42.6,29.14,ESE,112,1.1,1.1,98,0.04,,OVC015,0.04,VWS V14.01,2013-02-12 18:16:00,
2013-02-12 10:21:00,43.2,42.6,29.14,SE,135,0.0,0.0,98,0.04,,OVC015,0.04,VWS V14.01,2013-02-12 18:21:00,
2013-02-12 10:26:00,43.3,42.8,29.14,SE,135,0.0,0.0,98,0.04,,OVC015,0.04,VWS V14.01,2013-02-12 18:26:00,
2013-02-12 10:30:00,45.0,44.4,29.17,SSW,202,0.0,0.0,98,0.00,,,0.04,VWS V14.01,2013-02-12 18:30:00,
2013-02-12 10:31:00,43.5,43.0,29.14,SE,135,0.0,0.0,98,0.04,,OVC015,0.04,VWS V14.01,2013-02-12 18:31:00,
2013-02-12 10:36:00,43.5,43.0,29.17,ESE,112,2.2,2.2,98,0.04,,OVC015,0.04,VWS V14.01,2013-02-12 18:36:00,
2013-02-12 10:41:00,43.5,43.0,29.17,ESE,112,0.0,0.0,98,0.04,,OVC015,0.04,VWS V14.01,2013-02-12 18:41:00,
2013-02-12 10:46:00,43.7,43.2,29.17,SE,135,0.9,0.9,98,0.04,,OVC015,0.04,VWS V14.01,2013-02-12 18:46:00,
2013-02-12 10:51:00,43.5,43.0,29.14,East,90,1.3,1.3,98,0.04,,OVC015,0.04,VWS V14.01,2013-02-12 18:51:00,
2013-02-12 10:56:00,43.7,43.2,29.14,East,90,0.0,0.0,98,0.04,,OVC015,0.04,VWS V14.01,2013-02-12 18:56:00,
2013-02-12 11:00:00,45.9,45.3,29.17,SSW,202,0.0,0.0,98,0.00,,,0.04,VWS V14.01,2013-02-12 19:00:00,
2013-02-12 11:01:00,43.9,43.3,29.14,ESE,112,0.0,0.0,98,0.00,,OVC013,0.04,VWS V14.01,2013-02-12 19:01:00,
2013-02-12 11:06:00,44.1,43.5,29.17,East,90,0.0,0.0,98,0.00,,OVC013,0.04,VWS V14.01,2013-02-12 19:06:00,
2013-02-12 11:11:00,44.2,43.7,29.17,East,90,0.0,0.0,98,0.00,,OVC013,0.04,VWS V14.01,2013-02-12 19:11:00,
2013-02-12 11:16:00,44.2,43.7,29.17,NE,45,0.0,0.0,98,0.00,,OVC013,0.04,VWS V14.01,2013-02-12 19:16:00,
2013-02-12 11:21:00,44.6,44.1,29.17,NNW,338,0.0,0.0,98,0.00,,OVC013,0.04,VWS V14.01,2013-02-12 19:21:00,
2013-02-12 11:26:00,44.8,44.2,29.17,SSW,202,0.0,0.0,98,0.00,,OVC013,0.04,VWS V14.01,2013-02-12 19:26:00,
2013-02-12 11:30:00,45.5,44.7,29.17,NNW,338,4.7,4.7,97,0.04,,,0.08,VWS V14.01,2013-02-12 19:30:00,
2013-02-12 11:31:00,45.0,44.4,29.17,SSW,202,0.0,0.0,98,0.00,,,0.04,VWS V14.01,2013-02-12 19:31:00,
2013-02-12 11:36:00,44.8,44.2,29.17,SSW,202,0.0,0.0,98,0.00,,,0.04,VWS V14.01,2013-02-12 19:36:00,
2013-02-12 11:41:00,45.0,44.4,29.17,SSW,202,0.0,0.0,98,0.00,,,0.04,VWS V14.01,2013-02-12 19:41:00,
2013-02-12 11:46:00,45.1,44.6,29.17,SSW,202,0.0,0.0,98,0.00,,,0.04,VWS V14.01,2013-02-12 19:46:00,
2013-02-12 11:51:00,45.3,44.8,29.17,SSW,202,0.0,0.0,98,0.00,,,0.04,VWS V14.01,2013-02-12 19:51:00,
2013-02-12 11:56:00,45.7,45.2,29.17,SSW,202,0.0,0.0,98,0.00,,,0.04,VWS V14.01,2013-02-12 19:56:00,
2013-02-12 12:00:00,45.7,45.2,29.17,North,0,3.4,3.4,98,0.04,,,0.08,VWS V14.01,2013-02-12 20:00:00,
2013-02-12 12:01:00,45.9,45.3,29.17,South,180,0.0,0.0,98,0.00,,BKN023,0.04,VWS V14.01,2013-02-12 20:01:00,
2013-02-12 12:06:00,45.7,45.2,29.17,West,270,0.0,0.0,98,0.00,,BKN023,0.04,VWS V14.01,2013-02-12 20:06:00,
2013-02-12 12:11:00,45.7,45.2,29.17,NNE,22,2.7,2.7,98,0.00,,BKN023,0.04,VWS V14.01,2013-02-12 20:11:00,
2013-02-12 12:16:00,45.9,45.3,29.17,WNW,292,3.1,3.1,98,0.00,,BKN023,0.04,VWS V14.01,2013-02-12 20:16:00,
2013-02-12 12:21:00,45.7,44.9,29.17,North,0,2.5,2.5,97,0.00,,BKN023,0.04,VWS V14.01,2013-02-12 20:21:00,
2013-02-12 12:26:00,45.5,44.7,29.17,North,0,2.9,2.9,97,0.04,,BKN023,0.08,VWS V14.01,2013-02-12 20:26:00,
2013-02-12 12:30:00,45.9,44.8,29.17,North,0,1.3,1.3,96,0.04,,,0.08,VWS V14.01,2013-02-12 20:30:00,
2013-02-12 12:31:00,45.3,44.5,29.17,North,0,2.0,2.0,97,0.04,,BKN023,0.08,VWS V14.01,2013-02-12 20:31:00,
2013-02-12 12:36:00,45.5,45.0,29.17,NE,45,3.1,3.1,98,0.04,,BKN023,0.08,VWS V14.01,2013-02-12 20:36:00,
2013-02-12 12:41:00,45.5,45.0,29.17,West,270,1.6,1.6,98,0.04,,BKN023,0.08,VWS V14.01,2013-02-12 20:41:00,
2013-02-12 12:46:00,45.9,45.3,29.17,West,270,1.3,1.3,98,0.04,,BKN023,0.08,VWS V14.01,2013-02-12 20:46:00,
2013-02-12 12:51:00,45.9,45.3,29.17,NNE,22,1.6,1.6,98,0.04,,BKN023,0.08,VWS V14.01,2013-02-12 20:51:00,
2013-02-12 12:56:00,45.9,45.3,29.17,NE,45,4.3,4.3,98,0.04,,BKN023,0.08,VWS V14.01,2013-02-12 20:56:00,
2013-02-12 13:00:00,46.2,44.9,29.15,NNE,22,4.0,4.0,95,0.00,,,0.08,VWS V14.01,2013-02-12 21:00:00,
2013-02-12 13:01:00,45.5,44.7,29.17,NW,315,2.7,2.7,97,0.04,,OVC090,0.08,VWS V14.01,2013-02-12 21:01:00,
2013-02-12 13:06:00,45.5,44.7,29.17,NNW,338,1.3,1.3,97,0.04,,OVC090,0.08,VWS V14.01,2013-02-12 21:06:00,
2013-02-12 13:11:00,45.5,44.7,29.17,NNW,338,1.6,1.6,97,0.04,,OVC090,0.08,VWS V14.01,2013-02-12 21:11:00,
2013-02-12 13:16:00,45.5,44.7,29.17,NNW,338,2.9,2.9,97,0.04,,OVC090,0.08,VWS V14.01,2013-02-12 21:16:00,
2013-02-12 13:21:00,45.7,44.6,29.17,North,0,2.5,2.5,96,0.04,,OVC090,0.08,VWS V14.01,2013-02-12 21:21:00,
2013-02-12 13:26:00,45.7,44.6,29.17,NNW,338,3.8,3.8,96,0.04,,OVC090,0.08,VWS V14.01,2013-02-12 21:26:00,
2013-02-12 13:30:00,46.6,44.7,29.15,North,0,0.0,0.0,93,0.00,,,0.08,VWS V14.01,2013-02-12 21:30:00,
2013-02-12 13:31:00,45.9,44.8,29.17,NW,315,3.1,3.1,96,0.00,,OVC090,0.08,VWS V14.01,2013-02-12 21:31:00,
2013-02-12 13:36:00,46.0,45.0,29.14,NE,45,1.6,1.6,96,0.00,,BKN035,0.08,VWS V14.01,2013-02-12 21:36:00,
2013-02-12 13:41:00,46.2,45.4,29.14,East,90,0.9,0.9,97,0.00,,BKN035,0.08,VWS V14.01,2013-02-12 21:41:00,
2013-02-12 13:46:00,46.0,45.0,29.14,WNW,292,2.7,2.7,96,0.00,,BKN035,0.08,VWS V14.01,2013-02-12 21:46:00,
2013-02-12 13:51:00,46.2,45.2,29.14,NNW,338,2.9,2.9,96,0.00,,BKN035,0.08,VWS V14.01,2013-02-12 21:51:00,
2013-02-12 13:56:00,46.4,45.0,29.14,North,0,2.0,2.0,95,0.00,,BKN035,0.08,VWS V14.01,2013-02-12 21:56:00,
2013-02-12 14:00:00,46.2,44.9,29.15,SSW,202,2.0,2.0,95,0.00,,,0.08,VWS V14.01,2013-02-12 22:00:00,
2013-02-12 14:01:00,46.2,44.9,29.14,WNW,292,1.3,1.3,95,0.00,,BKN035,0.08,VWS V14.01,2013-02-12 22:01:00,
2013-02-12 14:06:00,46.0,44.4,29.14,NE,45,2.9,2.9,94,0.00,,OVC055,0.08,VWS V14.01,2013-02-12 22:06:00,
2013-02-12 14:11:00,46.2,44.3,29.14,NNE,22,2.0,2.0,93,0.00,,OVC055,0.08,VWS V14.01,2013-02-12 22:11:00,
2013-02-12 14:16:00,46.6,45.0,29.14,NW,315,1.3,1.3,94,0.00,,OVC055,0.08,VWS V14.01,2013-02-12 22:16:00,
2013-02-12 14:21:00,46.4,44.8,29.14,North,0,2.2,2.2,94,0.00,,OVC055,0.08,VWS V14.01,2013-02-12 22:21:00,
2013-02-12 14:26:00,46.6,44.7,29.14,NNE,22,2.2,2.2,93,0.00,,OVC055,0.08,VWS V14.01,2013-02-12 22:26:00,
2013-02-12 14:30:00,45.7,44.6,29.17,SW,225,0.0,0.0,96,0.05,,,0.13,VWS V14.01,2013-02-12 22:30:00,
2013-02-12 14:31:00,46.8,44.8,29.14,North,0,1.1,1.1,93,0.00,,OVC055,0.08,VWS V14.01,2013-02-12 22:31:00,
2013-02-12 14:36:00,46.6,44.4,29.14,SSW,202,3.4,3.4,92,0.00,,OVC055,0.08,VWS V14.01,2013-02-12 22:36:00,
2013-02-12 14:41:00,46.6,44.4,29.14,NNW,338,4.0,4.0,92,0.00,,OVC055,0.08,VWS V14.01,2013-02-12 22:41:00,
2013-02-12 14:46:00,46.6,44.7,29.14,North,0,2.5,2.5,93,0.00,,OVC055,0.08,VWS V14.01,2013-02-12 22:46:00,
2013-02-12 14:51:00,46.6,44.7,29.14,NW,315,0.0,0.0,93,0.00,,OVC055,0.08,VWS V14.01,2013-02-12 22:51:00,
2013-02-12 14:56:00,46.2,44.6,29.14,NW,315,2.9,2.9,94,0.00,,OVC055,0.08,VWS V14.01,2013-02-12 22:56:00,
2013-02-12 15:00:00,45.5,44.7,29.15,East,90,2.5,2.5,97,0.05,,,0.13,VWS V14.01,2013-02-12 23:00:00,
2013-02-12 15:01:00,46.2,44.9,29.14,East,90,0.9,0.9,95,0.00,,OVC055,0.08,VWS V14.01,2013-02-12 23:01:00,
2013-02-12 15:05:00,46.2,44.9,29.14,SSE,158,1.3,1.3,95,0.05,,OVC055,0.13,VWS V14.01,2013-02-12 23:05:00,
2013-02-12 15:10:00,46.2,44.9,29.14,North,0,2.2,2.2,95,0.05,,OVC055,0.13,VWS V14.01,2013-02-12 23:10:00,
2013-02-12 15:15:00,45.9,44.5,29.14,NNW,338,3.8,3.8,95,0.05,,OVC055,0.13,VWS V14.01,2013-02-12 23:15:00,
2013-02-12 15:20:00,45.7,44.3,29.17,NE,45,2.0,2.0,95,0.05,,OVC055,0.13,VWS V14.01,2013-02-12 23:20:00,
2013-02-12 15:25:00,45.7,44.3,29.17,NE,45,0.0,0.0,95,0.05,,OVC055,0.13,VWS V14.01,2013-02-12 23:25:00,
2013-02-12 15:30:00,45.7,44.6,29.17,SW,225,0.0,0.0,96,0.05,,OVC055,0.13,VWS V14.01,2013-02-12 23:30:00,
2013-02-12 15:35:00,45.9,44.8,29.17,SE,135,0.0,0.0,96,0.05,,BKN048,0.13,VWS V14.01,2013-02-12 23:35:00,
2013-02-12 15:40:00,45.9,45.1,29.17,SE,135,2.0,2.0,97,0.05,,BKN048,0.13,VWS V14.01,2013-02-12 23:40:00,
2013-02-12 15:45:00,45.9,45.1,29.17,SE,135,0.0,0.0,97,0.05,,BKN048,0.13,VWS V14.01,2013-02-12 23:45:00,
2013-02-12 15:50:00,45.7,44.9,29.14,SE,135,0.0,0.0,97,0.05,,BKN048,0.13,VWS V14.01,2013-02-12 23:50:00,
2013-02-12 15:55:00,45.7,44.9,29.14,NE,45,0.0,0.0,97,0.05,,BKN048,0.13,VWS V14.01,2013-02-12 23:55:00,
2013-02-12 16:00:00,45.5,44.7,29.14,East,90,1.6,1.6,97,0.05,,BKN048,0.13,VWS V14.01,2013-02-13 00:00:00,
2013-02-12 16:05:00,45.3,44.5,29.14,SSW,202,0.9,0.9,97,0.05,,OVC070,0.13,VWS V14.01,2013-02-13 00:05:00,
2013-02-12 16:10:00,45.3,44.5,29.14,SE,135,0.0,0.0,97,0.05,,OVC070,0.13,VWS V14.01,2013-02-13 00:10:00,
2013-02-12 16:15:00,45.3,44.5,29.14,South,180,0.0,0.0,97,0.05,,OVC070,0.13,VWS V14.01,2013-02-13 00:15:00,
2013-02-12 16:20:00,45.1,44.3,29.14,NNE,22,1.1,1.1,97,0.05,,OVC070,0.13,VWS V14.01,2013-02-13 00:20:00,
2013-02-12 16:25:00,45.1,44.3,29.14,West,270,0.0,0.0,97,0.05,,OVC070,0.13,VWS V14.01,2013-02-13 00:25:00,
2013-02-12 16:30:00,45.1,44.3,29.14,WSW,248,0.0,0.0,97,0.00,,OVC070,0.13,VWS V14.01,2013-02-13 00:30:00,
2013-02-12 16:35:00,45.1,44.3,29.14,North,0,0.0,0.0,97,0.00,,OVC028,0.13,VWS V14.01,2013-02-13 00:35:00,
2013-02-12 16:40:00,45.0,44.2,29.14,WSW,248,0.0,0.0,97,0.00,,OVC028,0.13,VWS V14.01,2013-02-13 00:40:00,
2013-02-12 16:45:00,45.0,44.2,29.14,WSW,248,0.0,0.0,97,0.00,,OVC028,0.13,VWS V14.01,2013-02-13 00:45:00,
2013-02-12 16:50:00,45.0,44.2,29.14,West,270,0.0,0.0,97,0.00,,OVC028,0.13,VWS V14.01,2013-02-13 00:50:00,
2013-02-12 16:55:00,44.8,44.2,29.14,SW,225,0.0,0.0,98,0.00,,OVC028,0.13,VWS V14.01,2013-02-13 00:55:00,
2013-02-12 17:00:00,44.8,44.2,29.14,SW,225,0.0,0.0,98,0.00,,OVC028,0.13,VWS V14.01,2013-02-13 01:00:00,
2013-02-12 17:05:00,44.8,44.2,29.14,SW,225,0.0,0.0,98,0.00,,OVC026,0.13,VWS V14.01,2013-02-13 01:05:00,
2013-02-12 17:10:00,44.6,44.1,29.14,SW,225,0.0,0.0,98,0.00,,OVC026,0.13,VWS V14.01,2013-02-13 01:10:00,
2013-02-12 17:15:00,44.6,44.1,29.14,SW,225,0.0,0.0,98,0.00,,OVC026,0.13,VWS V14.01,2013-02-13 01:15:00,
2013-02-12 17:20:00,44.4,43.9,29.14,SW,225,0.0,0.0,98,0.00,,OVC026,0.13,VWS V14.01,2013-02-13 01:20:00,
2013-02-12 17:25:00,44.2,43.7,29.14,SW,225,0.0,0.0,98,0.00,,OVC026,0.13,VWS V14.01,2013-02-13 01:25:00,
2013-02-12 17:30:00,44.2,43.7,29.14,South,180,0.0,0.0,98,0.00,,OVC026,0.13,VWS V14.01,2013-02-13 01:30:00,
2013-02-12 17:35:00,44.1,43.5,29.14,NNE,22,0.9,0.9,98,0.00,,OVC025,0.13,VWS V14.01,2013-02-13 01:35:00,
2013-02-12 17:40:00,43.9,43.3,29.14,ENE,68,1.6,1.6,98,0.00,,OVC025,0.13,VWS V14.01,2013-02-13 01:40:00,
2013-02-12 17:45:00,43.7,43.2,29.14,SSW,202,2.0,2.0,98,0.00,,OVC025,0.13,VWS V14.01,2013-02-13 01:45:00,
2013-02-12 17:50:00,43.9,43.3,29.14,NNW,338,2.7,2.7,98,0.00,,OVC025,0.13,VWS V14.01,2013-02-13 01:50:00,
2013-02-12 17:55:00,44.1,43.5,29.14,NW,315,2.5,2.5,98,0.00,,OVC025,0.13,VWS V14.01,2013-02-13 01:55:00,
2013-02-12 18:00:00,44.1,43.5,29.14,West,270,2.0,2.0,98,0.00,,OVC025,0.13,VWS V14.01,2013-02-13 02:00:00,
2013-02-12 18:05:00,43.9,43.3,29.14,NNW,338,0.0,0.0,98,0.00,,OVC027,0.13,VWS V14.01,2013-02-13 02:05:00,
2013-02-12 18:10:00,43.7,43.2,29.14,SW,225,0.0,0.0,98,0.00,,OVC027,0.13,VWS V14.01,2013-02-13 02:10:00,
2013-02-12 18:15:00,43.7,43.2,29.14,SW,225,0.0,0.0,98,0.00,,OVC027,0.13,VWS V14.01,2013-02-13 02:15:00,
2013-02-12 18:20:00,43.7,43.2,29.14,NE,45,2.2,2.2,98,0.00,,OVC027,0.13,VWS V14.01,2013-02-13 02:20:00,
2013-02-12 18:25:00,43.7,43.2,29.14,SW,225,0.0,0.0,98,0.00,,OVC027,0.13,VWS V14.01,2013-02-13 02:25:00,
2013-02-12 18:30:00,43.5,43.0,29.14,SW,225,0.0,0.0,98,0.00,,OVC027,0.13,VWS V14.01,2013-02-13 02:30:00,
2013-02-12 18:35:00,43.5,43.0,29.14,SSE,158,0.0,0.0,98,0.00,,OVC027,0.13,VWS V14.01,2013-02-13 02:35:00,
2013-02-12 18:40:00,43.5,43.0,29.14,WNW,292,0.9,0.9,98,0.00,,OVC027,0.13,VWS V14.01,2013-02-13 02:40:00,
2013-02-12 18:45:00,43.5,43.0,29.14,NNW,338,2.7,2.7,98,0.00,,OVC027,0.13,VWS V14.01,2013-02-13 02:45:00,
2013-02-12 18:50:00,43.5,43.0,29.14,NNW,338,1.6,1.6,98,0.00,,OVC027,0.13,VWS V14.01,2013-02-13 02:50:00,
2013-02-12 18:55:00,43.5,43.0,29.14,NNW,338,1.3,1.3,98,0.00,,OVC027,0.13,VWS V14.01,2013-02-13 02:55:00,
2013-02-12 19:00:00,43.5,43.0,29.14,West,270,0.0,0.0,98,0.00,,OVC027,0.13,VWS V14.01,2013-02-13 03:00:00,
2013-02-12 19:05:00,43.5,43.0,29.14,ESE,112,0.0,0.0,98,0.00,,OVC030,0.13,VWS V14.01,2013-02-13 03:05:00,
2013-02-12 19:10:00,43.5,43.0,29.14,SSE,158,0.0,0.0,98,0.00,,OVC030,0.13,VWS V14.01,2013-02-13 03:10:00,
2013-02-12 19:15:00,43.5,43.0,29.14,SW,225,0.0,0.0,98,0.00,,OVC030,0.13,VWS V14.01,2013-02-13 03:15:00,
2013-02-12 19:20:00,43.5,43.0,29.14,WSW,248,0.0,0.0,98,0.00,,OVC030,0.13,VWS V14.01,2013-02-13 03:20:00,
2013-02-12 19:25:00,43.3,42.8,29.14,West,270,0.0,0.0,98,0.04,,OVC030,0.17,VWS V14.01,2013-02-13 03:25:00,
2013-02-12 19:30:00,43.3,42.8,29.14,NNW,338,2.5,2.5,98,0.04,,OVC030,0.17,VWS V14.01,2013-02-13 03:30:00,
2013-02-12 19:35:00,43.5,43.0,29.14,WNW,292,1.3,1.3,98,0.04,,OVC037,0.17,VWS V14.01,2013-02-13 03:35:00,
2013-02-12 19:40:00,43.7,43.2,29.14,SW,225,0.9,0.9,98,0.04,,OVC037,0.17,VWS V14.01,2013-02-13 03:40:00,
2013-02-12 19:45:00,43.7,43.2,29.14,SW,225,2.9,2.9,98,0.04,,OVC037,0.17,VWS V14.01,2013-02-13 03:45:00,
2013-02-12 19:50:00,43.9,43.3,29.14,SSE,158,2.9,2.9,98,0.04,,OVC037,0.17,VWS V14.01,2013-02-13 03:50:00,
2013-02-12 19:55:00,44.1,43.5,29.14,NNE,22,2.7,2.7,98,0.04,,OVC037,0.17,VWS V14.01,2013-02-13 03:55:00,
2013-02-12 20:00:00,44.2,43.7,29.14,NW,315,1.3,1.3,98,0.04,,OVC037,0.17,VWS V14.01,2013-02-13 04:00:00,
2013-02-12 20:05:00,44.2,43.7,29.14,NE,45,0.9,0.9,98,0.04,,OVC039,0.17,VWS V14.01,2013-02-13 04:05:00,
2013-02-12 20:10:00,44.6,44.1,29.14,SSW,202,4.7,4.7,98,0.04,,OVC039,0.17,VWS V14.01,2013-02-13 04:10:00,
2013-02-12 20:15:00,44.6,44.1,29.14,SW,225,2.5,2.5,98,0.04,,OVC039,0.17,VWS V14.01,2013-02-13 04:15:00,
2013-02-12 20:20:00,44.6,44.1,29.14,NNE,22,2.9,2.9,98,0.04,,OVC039,0.17,VWS V14.01,2013-02-13 04:20:00,
2013-02-12 20:25:00,44.8,44.2,29.14,North,0,6.0,6.0,98,0.04,,OVC039,0.17,VWS V14.01,2013-02-13 04:25:00,
2013-02-12 20:30:00,44.8,44.2,29.14,SSW,202,2.5,2.5,98,0.00,,OVC039,0.17,VWS V14.01,2013-02-13 04:30:00,
2013-02-12 20:35:00,45.0,44.4,29.14,SSE,158,0.0,0.0,98,0.00,,OVC039,0.17,VWS V14.01,2013-02-13 04:35:00,
2013-02-12 20:40:00,44.8,44.2,29.14,NW,315,1.3,1.3,98,0.00,,OVC039,0.17,VWS V14.01,2013-02-13 04:40:00,
2013-02-12 20:45:00,44.6,44.1,29.14,ESE,112,2.7,2.7,98,0.00,,OVC039,0.17,VWS V14.01,2013-02-13 04:45:00,
2013-02-12 20:50:00,44.6,44.1,29.14,South,180,2.7,2.7,98,0.00,,OVC039,0.17,VWS V14.01,2013-02-13 04:50:00,
2013-02-12 20:55:00,44.4,43.9,29.14,West,270,1.6,1.6,98,0.00,,OVC039,0.17,VWS V14.01,2013-02-13 04:55:00,
2013-02-12 21:00:00,44.6,44.1,29.14,NNW,338,2.0,2.0,98,0.00,,OVC039,0.17,VWS V14.01,2013-02-13 05:00:00,
2013-02-12 21:05:00,44.6,44.1,29.14,ENE,68,1.1,1.1,98,0.00,,,0.17,VWS V14.01,2013-02-13 05:05:00,
2013-02-12 21:10:00,44.6,44.1,29.14,NNE,22,3.8,3.8,98,0.00,,,0.17,VWS V14.01,2013-02-13 05:10:00,
2013-02-12 21:15:00,44.4,43.9,29.14,SSW,202,0.9,0.9,98,0.00,,,0.17,VWS V14.01,2013-02-13 05:15:00,
2013-02-12 21:20:00,44.4,43.9,29.14,SSW,202,1.3,1.3,98,0.00,,,0.17,VWS V14.01,2013-02-13 05:20:00,
2013-02-12 21:25:00,44.2,43.7,29.14,WSW,248,2.5,2.5,98,0.00,,,0.17,VWS V14.01,2013-02-13 05:25:00,
2013-02-12 21:30:00,44.2,43.7,29.14,SSW,202,3.4,3.4,98,0.00,,,0.17,VWS V14.01,2013-02-13 05:30:00,
2013-02-12 21:35:00,44.2,43.7,29.12,SSW,202,3.6,3.6,98,0.00,,OVC030,0.17,VWS V14.01,2013-02-13 05:35:00,
2013-02-12 21:40:00,44.2,43.7,29.12,SSW,202,2.5,2.5,98,0.00,,OVC030,0.17,VWS V14.01,2013-02-13 05:40:00,
2013-02-12 21:45:00,44.4,43.6,29.12,SW,225,3.4,3.4,97,0.00,,OVC030,0.17,VWS V14.01,2013-02-13 05:45:00,
2013-02-12 21:50:00,44.6,43.8,29.12,ENE,68,3.8,3.8,97,0.00,,OVC030,0.17,VWS V14.01,2013-02-13 05:50:00,
2013-02-12 21:55:00,44.6,43.5,29.12,SW,225,2.7,2.7,96,0.00,,OVC030,0.17,VWS V14.01,2013-02-13 05:55:00,
2013-02-12 22:00:00,44.8,43.7,29.12,NNE,22,4.7,4.7,96,0.00,,OVC030,0.17,VWS V14.01,2013-02-13 06:00:00,
2013-02-12 22:05:00,44.8,43.7,29.14,SE,135,2.0,2.0,96,0.00,,OVC065,0.17,VWS V14.01,2013-02-13 06:05:00,
2013-02-12 22:10:00,44.8,43.4,29.14,SSW,202,2.9,2.9,95,0.00,,OVC065,0.17,VWS V14.01,2013-02-13 06:10:00,
2013-02-12 22:15:00,44.8,43.4,29.14,NNW,338,1.6,1.6,95,0.00,,OVC065,0.17,VWS V14.01,2013-02-13 06:15:00,
2013-02-12 22:20:00,45.0,43.3,29.14,NNW,338,4.3,4.3,94,0.04,,OVC065,0.21,VWS V14.01,2013-02-13 06:20:00,
2013-02-12 22:25:00,45.1,43.2,29.14,NNW,338,5.8,5.8,93,0.04,,OVC065,0.21,VWS V14.01,2013-02-13 06:25:00,
2013-02-12 22:30:00,45.3,42.8,29.14,NW,315,6.3,6.3,91,0.04,,OVC065,0.21,VWS V14.01,2013-02-13 06:30:00,
2013-02-12 22:35:00,45.3,42.8,29.14,NNW,338,3.6,3.6,91,0.04,,OVC065,0.21,VWS V14.01,2013-02-13 06:35:00,
2013-02-12 22:40:00,45.3,42.8,29.14,WNW,292,3.6,3.6,91,0.04,,OVC065,0.21,VWS V14.01,2013-02-13 06:40:00,
2013-02-12 22:45:00,45.3,43.1,29.14,North,0,2.5,2.5,92,0.04,,OVC065,0.21,VWS V14.01,2013-02-13 06:45:00,
2013-02-12 22:50:00,45.3,42.6,29.14,WSW,248,4.0,4.0,90,0.04,,OVC065,0.21,VWS V14.01,2013-02-13 06:50:00,
2013-02-12 22:55:00,45.3,42.8,29.14,WNW,292,2.0,2.0,91,0.04,,OVC065,0.21,VWS V14.01,2013-02-13 06:55:00,
2013-02-12 23:00:00,45.5,42.7,29.14,East,90,3.1,3.1,90,0.04,,OVC065,0.21,VWS V14.01,2013-02-13 07:00:00,
2013-02-12 23:05:00,45.5,42.7,29.14,WNW,292,2.7,2.7,90,0.04,,,0.21,VWS V14.01,2013-02-13 07:05:00,
2013-02-12 23:10:00,45.3,43.1,29.14,West,270,2.5,2.5,92,0.04,,,0.21,VWS V14.01,2013-02-13 07:10:00,
2013-02-12 23:15:00,45.1,43.0,29.14,North,0,5.4,5.4,92,0.04,,,0.21,VWS V14.01,2013-02-13 07:15:00,
2013-02-12 23:20:00,45.1,43.2,29.14,WSW,248,0.0,0.0,93,0.04,,,0.21,VWS V14.01,2013-02-13 07:20:00,
2013-02-12 23:24:00,44.8,42.9,29.14,WNW,292,1.1,1.1,93,0.04,,,0.21,VWS V14.01,2013-02-13 07:24:00,
2013-02-12 23:29:00,44.6,43.0,29.14,WSW,248,2.0,2.0,94,0.04,,,0.21,VWS V14.01,2013-02-13 07:29:00,
2013-02-12 23:30:00,44.6,43.0,29.15,East,90,0.0,0.0,94,0.00,,,0.00,VWS V14.01,2013-02-13 07:30:00,
2013-02-12 23:34:00,44.6,43.0,29.14,WNW,292,1.1,1.1,94,0.00,,,0.21,VWS V14.01,2013-02-13 07:34:00,
2013-02-12 23:39:00,44.4,43.1,29.14,WNW,292,6.3,6.3,95,0.00,,,0.21,VWS V14.01,2013-02-13 07:39:00,
2013-02-12 23:44:00,44.6,43.0,29.14,WNW,292,2.9,2.9,94,0.00,,,0.21,VWS V14.01,2013-02-13 07:44:00,
2013-02-12 23:49:00,45.0,43.3,29.14,North,0,2.0,2.0,94,0.00,,,0.21,VWS V14.01,2013-02-13 07:49:00,
2013-02-12 23:54:00,45.0,43.1,29.14,SSW,202,1.3,1.3,93,0.00,,,0.21,VWS V14.01,2013-02-13 07:54:00,
2013-02-12 23:59:00,45.1,43.2,29.14,WSW,248,1.3,1.3,93,0.00,,,0.21,VWS V14.01,2013-02-13 07:59:00,